VY2EK-13 Weather Reports


time (UTC)temp
C
wind
direction
speed
KPH
gust
KPH
rain 1hr
cm
rain 24hr
cm
rain mn
cm
humidity
%
barometer
mb
20260507174516 10 214 4.8 8.0 0.00 0.00 0.58 99 1002.0
20260507174012 10 100 0.0 3.2 0.00 0.00 0.58 99 1002.0
20260507173512 9 112 0.0 6.4 0.00 0.00 0.58 99 1002.0
20260507173012 9 307 3.2 8.0 0.00 0.00 0.58 99 1002.0
20260507172515 9 205 0.0 8.0 0.00 0.00 0.58 99 1002.0
20260507172013 9 167 3.2 4.8 0.00 0.00 0.58 99 1002.0
20260507171512 9 170 6.4 6.4 0.00 0.00 0.58 99 1001.0
20260507171011 9 132 4.8 8.0 0.05 0.00 0.58 98 1002.0
20260507170512 9 156 6.4 14.5 0.05 0.00 0.58 98 1002.0
20260507170012 9 118 0.0 11.3 0.00 0.00 0.58 98 1002.0
20260507165511 9 74 1.6 8.0 0.00 0.00 0.58 98 1002.0
20260507165011 9 39 3.2 8.0 0.00 0.00 0.58 98 1001.0
20260507164512 9 221 0.0 6.4 0.00 0.00 0.58 98 1002.0
20260507164011 9 296 0.0 8.0 0.00 0.00 0.58 98 1002.0
20260507163511 9 142 3.2 9.7 0.00 0.00 0.58 98 1002.0
20260507163012 10 257 6.4 6.4 0.05 0.00 0.58 98 1002.0
20260507162511 10 193 4.8 8.0 0.05 0.00 0.58 98 1002.0
20260507162011 10 69 0.0 9.7 0.00 0.00 0.56 99 1001.0
20260507161512 9 122 4.8 9.7 0.00 0.00 0.56 98 1001.0
20260507161012 9 153 8.0 12.9 0.00 0.00 0.56 98 1002.0
20260507160512 10 113 3.2 6.4 0.05 0.00 0.56 98 1003.0
20260507160012 10 165 3.2 9.7 0.13 0.00 0.56 98 1002.0
20260507155513 10 144 6.4 11.3 0.05 0.00 0.56 98 1003.0
20260507155017 10 225 4.8 11.3 0.05 0.00 0.56 98 1002.0
20260507154512 10 225 4.8 9.7 0.05 0.00 0.56 98 1002.0
20260507154012 10 137 8.0 14.5 0.05 0.00 0.53 98 1002.0
20260507153512 10 134 6.4 14.5 0.00 0.00 0.53 98 1002.0
20260507153012 10 188 3.2 11.3 0.05 0.00 0.53 98 1003.0
20260507152511 10 359 3.2 9.7 0.18 0.00 0.53 98 1003.0
20260507152012 10 113 3.2 14.5 0.18 0.00 0.53 98 1003.0
20260507151512 10 126 4.8 16.1 0.13 0.00 0.51 98 1003.0
20260507151013 10 230 9.7 11.3 0.05 0.00 0.48 98 1003.0
20260507150511 10 165 3.2 16.1 0.23 0.00 0.48 97 1003.0
20260507145544 10 187 11.3 17.7 0.43 0.00 0.43 97 1003.0
20260507145011 10 151 4.8 17.7 0.30 0.00 0.38 97 1003.0
20260507144512 10 273 3.2 16.1 0.30 0.00 0.36 97 1003.0
20260507144011 10 125 16.1 20.9 0.48 0.00 0.33 97 1003.0
20260507143518 10 92 8.0 29.0 0.43 0.00 0.30 97 1003.0
20260507143012 10 114 3.2 16.1 0.18 0.00 0.25 97 1003.0
20260507142512 11 168 17.7 24.1 0.18 0.00 0.23 97 1003.0
20260507142012 11 167 12.9 24.1 0.18 0.00 0.20 98 1002.0
20260507141511 10 155 12.9 17.7 0.13 0.00 0.20 98 1003.0
20260507141012 10 219 16.1 29.0 0.18 0.00 0.18 98 1003.0
20260507140511 11 186 9.7 19.3 0.13 0.00 0.18 98 1003.0
20260507140012 11 178 4.8 14.5 0.00 0.00 0.15 98 1003.0
20260507135512 11 192 11.3 20.9 0.00 0.00 0.15 98 1003.0
20260507135013 11 139 19.3 20.9 0.00 0.00 0.15 98 1003.0
20260507134513 11 161 12.9 25.7 0.00 0.00 0.15 98 1003.0
20260507134011 11 213 9.7 29.0 0.00 0.00 0.15 98 1003.0
20260507133512 11 147 19.3 27.4 0.00 0.00 0.15 98 1002.0
20260507133012 11 150 11.3 17.7 0.00 0.00 0.15 98 1003.0
20260507132512 11 201 11.3 22.5 0.05 0.00 0.15 98 1003.0
20260507132014 11 221 3.2 29.0 0.05 0.00 0.15 98 1003.0
20260507131512 11 220 9.7 22.5 0.00 0.00 0.15 98 1003.0
20260507131012 11 144 4.8 16.1 0.00 0.00 0.15 98 1003.0
20260507130513 11 239 16.1 17.7 0.00 0.00 0.15 98 1003.0
20260507130013 11 157 16.1 22.5 0.00 0.00 0.15 98 1003.0
20260507125511 11 173 9.7 30.6 0.00 0.00 0.15 98 1003.0
20260507125012 11 142 17.7 33.8 0.00 0.00 0.15 98 1003.0
20260507124511 11 155 12.9 22.5 0.00 0.00 0.15 98 1003.0
20260507124012 11 205 9.7 17.7 0.00 0.00 0.15 97 1003.0
20260507123512 11 177 14.5 24.1 0.00 0.00 0.15 97 1003.0
20260507123012 11 146 12.9 24.1 0.00 0.00 0.15 97 1003.0
20260507122512 11 186 11.3 27.4 0.00 0.00 0.15 97 1003.0
20260507122011 11 157 12.9 32.2 0.05 0.00 0.15 97 1003.0
20260507121040 11 227 20.9 35.4 0.05 0.00 0.13 97 1003.0
20260507120511 11 175 12.9 33.8 0.00 0.00 0.13 96 1003.0
20260507120011 11 164 24.1 35.4 0.00 0.00 0.13 96 1003.0
20260507115512 11 159 16.1 29.0 0.00 0.00 0.13 96 1003.0
20260507115012 11 165 20.9 40.2 0.00 0.00 0.13 96 1002.0
20260507114512 11 171 17.7 38.6 0.00 0.00 0.13 97 1002.0
20260507114012 11 154 16.1 33.8 0.00 0.00 0.13 97 1002.0
20260507113512 11 166 17.7 30.6 0.00 0.00 0.13 97 1002.0
20260507113012 11 154 25.7 35.4 0.00 0.00 0.13 97 1002.0
20260507112512 11 140 16.1 33.8 0.00 0.00 0.13 97 1003.0
20260507112011 11 163 9.7 22.5 0.00 0.00 0.13 97 1003.0
20260507111512 11 161 20.9 22.5 0.00 0.00 0.13 96 1003.0
20260507111011 11 187 12.9 22.5 0.05 0.00 0.13 95 1003.0
20260507110511 11 194 14.5 19.3 0.05 0.00 0.13 94 1003.0
20260507110011 11 160 11.3 24.1 0.00 0.00 0.10 93 1003.0
20260507105513 12 168 4.8 24.1 0.00 0.00 0.10 94 1003.0
20260507105011 12 206 8.0 35.4 0.00 0.00 0.10 94 1003.0
20260507104511 12 185 12.9 35.4 0.00 0.00 0.10 94 1003.0
20260507104011 12 163 22.5 38.6 0.00 0.00 0.10 95 1003.0
20260507103511 12 131 24.1 38.6 0.00 0.00 0.10 95 1003.0
20260507103011 11 156 22.5 37.0 0.05 0.00 0.10 95 1002.0
20260507102511 11 153 27.4 38.6 0.05 0.00 0.10 95 1002.0
20260507102012 11 165 11.3 48.3 0.00 0.00 0.10 95 1003.0
20260507101511 11 154 19.3 40.2 0.00 0.00 0.10 95 1002.0
20260507101015 11 142 27.4 41.8 0.00 0.00 0.10 96 1002.0
20260507100511 11 158 20.9 38.6 0.00 0.00 0.10 96 1002.0
20260507100011 11 151 19.3 41.8 0.00 0.00 0.10 96 1002.0
20260507095511 11 154 20.9 30.6 0.00 0.00 0.10 95 1002.0
20260507095011 11 146 16.1 35.4 0.00 0.00 0.10 95 1002.0
20260507094100 11 147 16.1 49.9 0.00 0.00 0.10 95 1003.0
20260507093512 11 145 14.5 43.5 0.05 0.00 0.10 95 1003.0
20260507093011 11 149 25.7 45.1 0.05 0.00 0.10 95 1003.0
20260507092512 11 150 20.9 40.2 0.00 0.00 0.10 95 1003.0
20260507092012 11 169 22.5 40.2 0.00 0.00 0.10 94 1003.0
20260507091511 11 157 14.5 37.0 0.00 0.00 0.10 93 1003.0
20260507091011 11 144 16.1 38.6 0.00 0.00 0.10 93 1003.0
20260507090512 11 146 20.9 29.0 0.00 0.00 0.10 92 1003.0
20260507090012 11 139 24.1 41.8 0.00 0.00 0.10 92 1003.0
20260507085511 11 160 32.2 40.2 0.00 0.00 0.10 91 1003.0
20260507085011 11 153 24.1 33.8 0.00 0.00 0.10 91 1003.0
20260507084512 11 163 22.5 37.0 0.00 0.00 0.10 91 1003.0
20260507084012 11 157 20.9 41.8 0.00 0.00 0.10 91 1004.0
20260507083513 11 155 29.0 38.6 0.00 0.00 0.10 92 1003.0
20260507083011 11 152 20.9 45.1 0.00 0.00 0.10 92 1004.0
20260507082512 11 156 16.1 38.6 0.00 0.00 0.10 92 1004.0
20260507082011 11 123 24.1 33.8 0.00 0.00 0.10 92 1004.0
20260507081512 11 158 16.1 45.1 0.00 0.00 0.10 92 1004.0
20260507081011 11 171 22.5 38.6 0.00 0.00 0.10 92 1004.0
20260507080512 11 164 20.9 37.0 0.00 0.00 0.10 92 1004.0
20260507080011 11 158 25.7 45.1 0.00 0.00 0.10 92 1004.0
20260507075513 11 139 16.1 38.6 0.00 0.00 0.10 92 1004.0
20260507075012 11 155 24.1 46.7 0.00 0.00 0.10 93 1004.0
20260507074512 11 136 27.4 49.9 0.00 0.00 0.10 93 1005.0
20260507074012 11 152 22.5 45.1 0.00 0.00 0.10 93 1004.0
20260507073511 11 161 22.5 40.2 0.00 0.00 0.10 93 1005.0
20260507073012 11 135 20.9 30.6 0.00 0.00 0.10 93 1005.0
20260507072513 11 156 25.7 40.2 0.00 0.00 0.10 93 1005.0
20260507072013 11 149 38.6 40.2 0.00 0.00 0.10 94 1005.0
20260507071512 11 132 11.3 49.9 0.05 0.00 0.10 94 1005.0
20260507071012 11 130 20.9 38.6 0.00 0.00 0.08 95 1005.0
20260507070512 11 143 17.7 27.4 0.00 0.00 0.08 95 1005.0
20260507070013 11 153 22.5 33.8 0.00 0.00 0.08 95 1005.0
20260507065512 11 136 17.7 30.6 0.00 0.00 0.08 94 1005.0
20260507065012 11 145 14.5 35.4 0.00 0.00 0.08 94 1006.0
20260507064512 11 153 25.7 32.2 0.05 0.00 0.08 94 1006.0
20260507064011 11 140 17.7 33.8 0.05 0.00 0.08 94 1006.0
20260507063511 11 127 17.7 29.0 0.00 0.00 0.08 94 1006.0
20260507063012 11 153 16.1 41.8 0.00 0.00 0.08 94 1006.0
20260507062512 11 155 11.3 33.8 0.05 0.00 0.08 93 1006.0
20260507062013 11 154 25.7 38.6 0.05 0.00 0.08 93 1007.0
20260507061512 11 160 32.2 38.6 0.18 0.00 0.05 92 1007.0
20260507061011 11 132 16.1 33.8 0.13 0.00 0.05 91 1007.0
20260507060513 11 140 17.7 29.0 0.13 0.00 0.03 91 1007.0
20260507060011 11 118 19.3 29.0 0.05 0.00 0.00 90 1007.0
20260507055511 11 142 19.3 32.2 0.00 0.00 0.00 90 1007.0
20260507055011 12 165 24.1 41.8 0.00 0.00 0.00 89 1007.0
20260507054513 12 126 16.1 37.0 0.00 0.00 0.00 89 1007.0
20260507054011 12 143 19.3 41.8 0.00 0.00 0.00 88 1007.0
20260507053512 12 147 19.3 38.6 0.00 0.00 0.00 88 1007.0
20260507053011 12 141 19.3 41.8 0.00 0.00 0.00 87 1008.0
20260507052512 12 132 14.5 38.6 0.00 0.00 0.00 86 1008.0
20260507052011 12 157 25.7 27.4 0.00 0.00 0.00 86 1008.0
20260507051511 12 106 12.9 35.4 0.00 0.00 0.00 86 1008.0
20260507051013 12 185 12.9 33.8 0.00 0.00 0.00 87 1008.0
20260507050512 12 147 20.9 38.6 0.00 0.00 0.00 88 1008.0
20260507050015 12 167 14.5 27.4 0.00 0.00 0.00 88 1008.0
20260507045511 12 140 19.3 33.8 0.00 0.00 0.00 88 1008.0
20260507045012 12 142 17.7 29.0 0.00 0.00 0.00 89 1008.0
20260507044511 12 167 19.3 27.4 0.00 0.00 0.00 89 1008.0
20260507044011 12 152 22.5 40.2 0.00 0.00 0.00 88 1008.0
20260507043511 12 144 19.3 33.8 0.00 0.00 0.00 88 1009.0
20260507043011 12 155 16.1 38.6 0.00 0.00 0.00 87 1009.0
20260507042511 12 161 12.9 29.0 0.00 0.00 0.00 87 1009.0
20260507042011 12 156 8.0 22.5 0.00 0.00 0.00 86 1009.0
20260507041512 12 146 16.1 30.6 0.00 0.00 0.00 86 1009.0
20260507041012 12 147 22.5 35.4 0.00 0.00 0.00 86 1009.0
20260507040511 12 159 27.4 33.8 0.00 0.00 0.00 86 1009.0
20260507040014 12 163 22.5 32.2 0.00 0.00 0.00 86 1009.0
20260507035512 12 133 14.5 33.8 0.00 0.00 0.00 86 1009.0
20260507035011 13 159 19.3 30.6 0.00 0.00 0.00 86 1010.0
20260507034511 13 153 17.7 30.6 0.00 0.00 0.00 86 1009.0
20260507034011 13 143 16.1 33.8 0.00 0.00 0.00 86 1009.0
20260507033511 12 147 19.3 35.4 0.00 0.00 0.00 86 1009.0
20260507033012 12 138 16.1 35.4 0.00 0.00 0.00 85 1009.0
20260507032515 12 142 17.7 30.6 0.00 0.00 0.00 85 1009.0
20260507032012 13 135 12.9 29.0 0.00 0.00 0.00 84 1010.0
20260507031514 13 149 12.9 29.0 0.00 0.00 0.00 83 1010.0
20260507031012 13 168 14.5 25.7 0.00 0.00 0.00 83 1010.0
20260507030512 13 123 9.7 35.4 0.00 0.00 0.00 83 1010.0
20260507030012 13 138 19.3 22.5 0.00 0.00 0.00 83 1010.0
20260507025511 13 162 16.1 30.6 0.00 0.00 0.00 82 1010.0
20260507025013 13 159 17.7 33.8 0.00 0.00 0.00 82 1010.0
20260507024511 13 137 8.0 30.6 0.00 0.00 0.00 82 1010.0
20260507024012 13 159 20.9 33.8 0.00 0.00 0.00 81 1010.0
20260507023513 13 134 17.7 30.6 0.00 0.00 0.00 81 1011.0
20260507023011 13 182 16.1 38.6 0.00 0.00 0.00 81 1011.0
20260507022512 13 150 12.9 33.8 0.00 0.00 0.00 81 1011.0
20260507022012 13 164 29.0 40.2 0.00 0.00 0.00 81 1011.0
20260507021512 13 164 20.9 30.6 0.00 0.00 0.00 81 1012.0
20260507021011 13 146 16.1 40.2 0.00 0.00 0.00 80 1011.0
20260507020513 13 166 27.4 32.2 0.00 0.00 0.00 80 1011.0
20260507020013 13 151 22.5 35.4 0.00 0.00 0.00 80 1012.0
20260507015512 14 158 22.5 35.4 0.00 0.00 0.00 80 1012.0
20260507015012 14 165 19.3 32.2 0.00 0.00 0.00 79 1012.0
20260507014512 14 147 25.7 32.2 0.00 0.00 0.00 79 1012.0
20260507014011 14 146 14.5 30.6 0.00 0.00 0.00 78 1012.0
20260507013511 14 163 27.4 32.2 0.00 0.00 0.00 78 1012.0
20260507013012 14 140 22.5 32.2 0.00 0.00 0.00 78 1012.0
20260507012512 14 154 17.7 37.0 0.00 0.00 0.00 78 1012.0
20260507012012 14 150 16.1 30.6 0.00 0.00 0.00 78 1012.0
20260507011511 14 154 22.5 40.2 0.00 0.00 0.00 78 1012.0
20260507011012 14 137 12.9 29.0 0.00 0.00 0.00 77 1012.0
20260507010512 14 172 16.1 30.6 0.00 0.00 0.00 77 1012.0
20260507010013 15 199 6.4 27.4 0.00 0.00 0.00 76 1012.0
20260507005511 15 151 16.1 35.4 0.00 0.00 0.00 76 1012.0
20260507005012 15 172 22.5 35.4 0.00 0.00 0.00 75 1012.0
20260507004511 15 158 14.5 29.0 0.00 0.00 0.00 74 1012.0
20260507004011 15 152 22.5 41.8 0.00 0.00 0.00 74 1012.0
20260507003511 15 150 17.7 35.4 0.00 0.00 0.00 75 1012.0
20260507003011 15 144 16.1 40.2 0.00 0.00 0.00 75 1012.0
20260507002511 15 139 17.7 38.6 0.00 0.00 0.00 75 1012.0
20260507002012 15 141 17.7 29.0 0.00 0.00 0.00 76 1012.0
20260507001513 15 142 29.0 32.2 0.00 0.00 0.00 76 1012.0
20260507001011 15 156 17.7 33.8 0.00 0.00 0.00 76 1012.0
20260507000512 15 174 14.5 29.0 0.00 0.00 0.00 75 1012.0
20260507000011 15 131 11.3 29.0 0.00 0.00 0.00 74 1012.0
20260506235512 15 148 11.3 29.0 0.00 0.00 0.00 73 1012.0
20260506235011 15 188 19.3 40.2 0.00 0.00 0.00 72 1012.0
20260506234514 16 174 22.5 35.4 0.00 0.00 0.00 72 1012.0
20260506234011 16 160 20.9 45.1 0.00 0.00 0.00 72 1012.0
20260506233511 16 158 19.3 35.4 0.00 0.00 0.00 72 1012.0
20260506233014 16 163 17.7 37.0 0.00 0.00 0.00 72 1011.0
20260506232511 16 166 16.1 40.2 0.00 0.00 0.00 72 1012.0
20260506232012 16 164 8.0 33.8 0.00 0.00 0.00 72 1012.0
20260506231511 16 172 19.3 35.4 0.00 0.00 0.00 72 1012.0
20260506231012 16 171 14.5 32.2 0.00 0.00 0.00 72 1011.0
20260506230512 16 139 16.1 35.4 0.00 0.00 0.00 72 1011.0
20260506230011 16 149 22.5 33.8 0.00 0.00 0.00 71 1011.0
20260506225511 16 159 16.1 43.5 0.00 0.00 0.00 71 1011.0
20260506225012 16 160 17.7 40.2 0.00 0.00 0.00 71 1011.0
20260506224514 16 160 14.5 35.4 0.00 0.00 0.00 71 1012.0
20260506224011 16 164 19.3 33.8 0.00 0.00 0.00 72 1011.0
20260506223511 16 156 9.7 30.6 0.00 0.00 0.00 72 1011.0
20260506223012 16 216 8.0 29.0 0.00 0.00 0.00 72 1012.0
20260506222511 16 212 17.7 24.1 0.00 0.00 0.00 72 1011.0
20260506222011 16 178 11.3 30.6 0.00 0.00 0.00 71 1012.0
20260506221511 16 150 12.9 24.1 0.00 0.00 0.00 72 1012.0
20260506221011 16 124 4.8 30.6 0.00 0.00 0.00 71 1012.0
20260506220511 16 186 12.9 22.5 0.00 0.00 0.00 71 1012.0
20260506220012 16 221 14.5 38.6 0.00 0.00 0.00 71 1012.0
20260506215511 16 211 22.5 30.6 0.00 0.00 0.00 71 1012.0
20260506215012 16 109 8.0 20.9 0.00 0.00 0.00 70 1012.0
20260506214515 16 200 14.5 29.0 0.00 0.00 0.00 70 1012.0
20260506214012 16 183 14.5 30.6 0.00 0.00 0.00 70 1012.0
20260506213512 16 196 11.3 27.4 0.00 0.00 0.00 69 1012.0
20260506213011 16 189 14.5 24.1 0.00 0.00 0.00 69 1011.0
20260506212511 17 222 20.9 45.1 0.00 0.00 0.00 69 1012.0
20260506212012 17 193 19.3 27.4 0.00 0.00 0.00 70 1012.0
20260506211512 17 173 9.7 30.6 0.00 0.00 0.00 69 1012.0
20260506211011 17 185 11.3 25.7 0.00 0.00 0.00 69 1012.0
20260506210511 17 135 12.9 29.0 0.00 0.00 0.00 69 1011.0
20260506210012 17 215 14.5 24.1 0.00 0.00 0.00 69 1011.0
20260506205511 17 228 11.3 25.7 0.00 0.00 0.00 68 1011.0
20260506205012 17 175 6.4 20.9 0.00 0.00 0.00 68 1011.0
20260506204511 17 154 9.7 27.4 0.00 0.00 0.00 68 1011.0
20260506204011 17 197 14.5 27.4 0.00 0.00 0.00 68 1011.0
20260506203512 17 222 14.5 22.5 0.00 0.00 0.00 68 1011.0
20260506203011 17 196 11.3 24.1 0.00 0.00 0.00 68 1011.0
20260506202511 17 220 8.0 27.4 0.00 0.00 0.00 68 1011.0
20260506202012 17 181 8.0 22.5 0.00 0.00 0.00 68 1011.0
20260506201512 18 150 17.7 25.7 0.00 0.00 0.00 67 1011.0
20260506201011 18 198 11.3 24.1 0.00 0.00 0.00 67 1011.0
20260506200513 18 222 11.3 29.0 0.00 0.00 0.00 68 1011.0
20260506200012 18 172 29.0 32.2 0.00 0.00 0.00 68 1011.0
20260506195513 17 165 8.0 33.8 0.00 0.00 0.00 69 1011.0
20260506195012 17 221 12.9 25.7 0.00 0.00 0.00 70 1011.0
20260506194511 17 169 6.4 27.4 0.00 0.00 0.00 70 1011.0
20260506194012 17 206 14.5 32.2 0.00 0.00 0.00 70 1011.0
20260506193511 17 223 9.7 27.4 0.00 0.00 0.00 70 1011.0
20260506193012 17 234 12.9 32.2 0.00 0.00 0.00 71 1011.0
20260506192512 17 196 14.5 20.9 0.00 0.00 0.00 70 1012.0
20260506192013 17 179 9.7 16.1 0.00 0.00 0.00 71 1011.0
20260506191513 17 239 9.7 20.9 0.00 0.00 0.00 70 1012.0
20260506191014 17 147 16.1 32.2 0.00 0.00 0.00 71 1012.0
20260506190512 17 154 16.1 22.5 0.00 0.00 0.00 72 1011.0
20260506190012 17 226 9.7 24.1 0.00 0.00 0.00 73 1012.0
20260506185512 17 111 9.7 38.6 0.00 0.00 0.00 73 1012.0
20260506185012 17 168 16.1 29.0 0.00 0.00 0.00 73 1012.0
20260506184512 17 161 14.5 27.4 0.00 0.00 0.00 74 1012.0
20260506184013 17 175 14.5 25.7 0.00 0.00 0.00 74 1012.0
20260506183511 17 203 14.5 25.7 0.00 0.00 0.00 76 1012.0
20260506183012 16 173 16.1 41.8 0.00 0.00 0.00 75 1012.0
20260506182512 16 204 16.1 25.7 0.00 0.00 0.00 75 1012.0
20260506182012 17 181 11.3 30.6 0.00 0.00 0.00 74 1012.0
20260506181511 17 210 9.7 17.7 0.00 0.00 0.00 74 1012.0
20260506181012 17 220 16.1 22.5 0.00 0.00 0.00 74 1012.0
20260506180512 17 212 16.1 41.8 0.00 0.00 0.00 75 1012.0
20260506180011 16 207 17.7 29.0 0.00 0.00 0.00 75 1012.0
20260506175512 16 201 14.5 32.2 0.00 0.00 0.00 76 1012.0
20260506175012 16 196 14.5 29.0 0.00 0.00 0.00 75 1012.0